This is the latest recevied weather packets stored in our database for station/object K4PAD. If no packets are shown the sender has not sent any weather packets the latest 10 day(s).
| Time | Temp. | Humidity | Pressure | Rain* | Wind** | Luminosity | Snow |
|---|---|---|---|---|---|---|---|
| 1778020063 | 26.67° C | 45% | 1016.4 hPa | 0 mm | - | 216 W/m² | - |
| 1778019759 | 26.67° C | 46% | 1016.3 hPa | 0 mm | - | 244 W/m² | - |
| 1778019456 | 26.67° C | 46% | 1016.3 hPa | 0 mm | - | 267 W/m² | - |
| 1778019153 | 26.67° C | 47% | 1016.3 hPa | 0 mm | - | 286 W/m² | - |
| 1778018850 | 26.67° C | 47% | 1016.3 hPa | 0 mm | - | 320 W/m² | - |
| 1778018547 | 26.67° C | 46% | 1016.2 hPa | 0 mm | - | 339 W/m² | - |
| 1778018245 | 27.22° C | 45% | 1016.2 hPa | 0 mm | - | 343 W/m² | - |
| 1778017943 | 27.22° C | 45% | 1016.3 hPa | 0 mm | - | 368 W/m² | - |
| 1778017640 | 27.22° C | 44% | 1016.1 hPa | 0 mm | - | 377 W/m² | - |
| 1778017338 | 27.22° C | 44% | 1016.3 hPa | 0 mm | - | 422 W/m² | - |
| 1778017035 | 27.22° C | 44% | 1016.2 hPa | 0 mm | - | 448 W/m² | - |
| 1778016732 | 27.78° C | 44% | 1016 hPa | 0 mm | - | 426 W/m² | - |
| 1778016428 | 27.78° C | 43% | 1016.3 hPa | 0 mm | - | 481 W/m² | - |
| 1778016126 | 27.78° C | 43% | 1016.3 hPa | 0 mm | - | 490 W/m² | - |
| 1778015822 | 27.78° C | 45% | 1016.2 hPa | 0 mm | - | 529 W/m² | - |
| 1778015520 | 27.78° C | 43% | 1016.2 hPa | 0 mm | - | 333 W/m² | - |
| 1778015216 | 27.78° C | 44% | 1016.2 hPa | 0 mm | - | 604 W/m² | - |
| 1778014913 | 27.78° C | 43% | 1016.3 hPa | 0 mm | - | 606 W/m² | - |
| 1778014610 | 27.78° C | 44% | 1016.2 hPa | 0 mm | - | 568 W/m² | - |
| 1778014308 | 27.78° C | 44% | 1016.4 hPa | 0 mm | - | 630 W/m² | - |
| 1778014005 | 27.78° C | 44% | 1016.4 hPa | 0 mm | - | 673 W/m² | - |
| 1778013703 | 27.78° C | 44% | 1016.5 hPa | 0 mm | - | 516 W/m² | - |
| 1778013399 | 27.78° C | 44% | 1016.2 hPa | 0 mm | - | 667 W/m² | - |
| 1778013096 | 27.22° C | 45% | 1016.4 hPa | 0 mm | - | 369 W/m² | - |
| 1778012792 | 27.78° C | 44% | 1016.4 hPa | 0 mm | - | 805 W/m² | - |
* Rain latest hour (hover to see other rain measurements)
** Current wind speed in m/s (hover to see current wind gust speed)